Location: Bois Neuf
(42.7667°N, 0.6333°E)
Time: 17:43:29
(UTC+00:00)

Cosmos 2227 Rocket - Pass Details

Date: 07 June 2020
Orbit: 838 x 846 km, 71.0° (Epoch: 08 July)

Event Time Altitude Azimuth Distance (km) Brightness Sun altitude
Rises 00:01:07 0° 333° (NNW) 3,416 6.4 -24.4°
Reaches altitude 10° 00:03:34 10° 332° (NNW) 2,477 5.4 -24.4°
Maximum altitude 00:09:15 74° 248° (WSW) 881 2.1 -24.4°
Enters shadow 00:10:04 63° 192° (SSW) 943 2.1 -24.4°
